(°C)
-1°
-1°
-1°
-1°
-1°
-1°
-1°
(°C)
-7°
-7°
-8°
-7°
-7°
-7°
-7°
SSW
SSW
SSW
SSW
SSW
SSW
SSW
(km/h)
17-31
19-33
20-33
20-33
19-34
18-32
18-31
(mm)
1
1
0
0.9
0.6
0.7
0
(%)
27
44
39
72
89
91
70

Wysokość słońca

/ 19.4°
sun-icon
UV 0
08:12
17:47
Ubywający Księżyc garbaty (244°)
20:07
14:51

METAR dla 57.92°N 56.02°E (USPP)

Czas Warunki Temperatura/
Punkt rosy
Wiatr Widzialność Pogoda Chmury Ciśn. atm. Zmień Surowy
MVFR -1°C / -3°C 230º 12kt 8000m Light Snow 1.00mm precipitation Vertical Visibility of 0ft. 1017 Temporary: Visibility 1100. Snow . Broken Clouds 700ft. RMK QFE752 . Runway 21: Slush, 51-100% contamination with 1mm, friction coefficient 0.47. USPP 260800Z 23006MPS 8000 -SN BKN046 M01/M03 Q1017 R21/690147 TEMPO 1100 SN BKN007 RMK QFE752
VFR -1°C / -3°C 230º 12kt >10km Light Snow 1.00mm precipitation Vertical Visibility of 0ft. 1018 Temporary: Visibility 1100. Snow . Broken Clouds 700ft. RMK QFE752 . Runway 21: Damp, 11-25% contamination with <1mm, friction coefficient 0.55. USPP 260730Z 23006MPS 9999 -SN BKN044 M01/M03 Q1018 R21/120055 TEMPO 1100 SN BKN007 RMK QFE752
MVFR -1°C / -4°C 230º 10kt >10km Light Snow 1.00mm precipitation Vertical Visibility of 0ft. 1018 Temporary: Visibility 1100. Snow . Broken Clouds 700ft. RMK QFE752 . Runway 21: Damp, 11-25% contamination with <1mm, friction coefficient 0.55. USPP 260700Z 23005MPS 9999 -SN BKN015 M01/M04 Q1018 R21/120055 TEMPO 1100 SN BKN007 RMK QFE752
MVFR -2°C / -4°C 240º 12kt 8000m Light Snow 1.00mm precipitation Vertical Visibility of 0ft. 1018 Temporary: Visibility 1100. Snow . Broken Clouds 700ft. RMK QFE753 . Runway 21: Damp, 11-25% contamination with <1mm, friction coefficient 0.55. USPP 260630Z 24006MPS 8000 -SN BKN048 M02/M04 Q1018 R21/120055 TEMPO 1100 SN BKN007 RMK QFE753
MVFR -2°C / -5°C 240º 12kt >10km - Broken Clouds 1500ft 1018 No Significant change. Runway 21: Damp, 11-25% contamination with <1mm, friction coefficient 0.55. USPP 260600Z 24006MPS 9999 BKN015 M02/M05 Q1018 R21/120055 NOSIG RMK QFE753
VFR -2°C / -5°C 230º 12kt >10km - Scattered Clouds 1400ft 1018 No Significant change. Runway 21: Damp, 11-25% contamination with <1mm, friction coefficient 0.55. USPP 260530Z 23006MPS 9999 SCT014 M02/M05 Q1018 R21/120055 NOSIG RMK QFE753
VFR -2°C / -5°C 230º 10kt >10km - Scattered Clouds 1500ft 1018 No Significant change. Runway 21: Damp, 11-25% contamination with <1mm, friction coefficient 0.55. USPP 260500Z 23005MPS 9999 SCT015 M02/M05 Q1018 R21/120055 NOSIG RMK QFE753
VFR -2°C / -5°C 210º 8kt >10km - Scattered Clouds 2300ft 1018 No Significant change. Runway 21: Damp, 11-25% contamination with <1mm, friction coefficient 0.55. USPP 260430Z 21004MPS 9999 SCT023 M02/M05 Q1018 R21/120055 NOSIG RMK QFE753
MVFR -3°C / -5°C 210º 6kt >10km - Broken Clouds 2300ft 1018 No Significant change. Runway 21: Damp, 1-10% contamination with <1mm, friction coefficient 0.55. USPP 260400Z 21003MPS 9999 BKN023 M03/M05 Q1018 R21/110055 NOSIG RMK QFE753
MVFR -3°C / -5°C 220º 6kt >10km - Broken Clouds 2400ft 1018 No Significant change. Runway 21: Damp, 1-10% contamination with <1mm, friction coefficient 0.55. USPP 260330Z 22003MPS 9999 BKN024 M03/M05 Q1018 R21/110055 NOSIG RMK QFE753
MVFR -2°C / -6°C 260º 6kt >10km - Broken Clouds 3000ft 1018 No Significant change. Runway 21: Damp, 1-10% contamination with <1mm, friction coefficient 0.55. USPP 260300Z 26003MPS 9999 BKN030 M02/M06 Q1018 R21/110055 NOSIG RMK QFE753
MVFR -2°C / -6°C 260º 8kt >10km - Broken Clouds 3000ft 1018 No Significant change. Runway 21: Wet or puddles, 51-100% contamination with 1mm, friction coefficient 0.50. USPP 260230Z 26004MPS 9999 BKN030 M02/M06 Q1018 R21/290150 NOSIG RMK QFE753
MVFR -2°C / -6°C 260º 8kt >10km - Broken Clouds 3000ft 1019 No Significant change. Runway 21: Damp, 11-25% contamination with <1mm, friction coefficient 0.55. USPP 260200Z 26004MPS 9999 BKN030 M02/M06 Q1019 R21/120055 NOSIG RMK QFE753
MVFR -2°C / -6°C 260º 8kt >10km - Broken Clouds 3000ft 1019 No Significant change. Runway 21: Damp, 11-25% contamination with <1mm, friction coefficient 0.55. USPP 260130Z 26004MPS 9999 BKN030 M02/M06 Q1019 R21/120055 NOSIG RMK QFE753
VFR -2°C / -5°C 260º 8kt >10km - Broken Clouds 3300ft 1018 No Significant change. Runway 21: Damp, 11-25% contamination with <1mm, friction coefficient 0.55. USPP 260100Z 26004MPS 9999 BKN033 M02/M05 Q1018 R21/120055 NOSIG RMK QFE753
MVFR -2°C / -5°C 260º 6kt >10km - Broken Clouds 2300ft 1018 No Significant change. Runway 21: Damp, 11-25% contamination with <1mm, friction coefficient 0.55. USPP 260030Z 26003MPS 9999 BKN023 M02/M05 Q1018 R21/120055 NOSIG RMK QFE753
VFR -2°C / -5°C 260º 6kt >10km - Broken Clouds 3300ft 1018 No Significant change. Runway 21: Damp, 11-25% contamination with <1mm, friction coefficient 0.55. USPP 260000Z 26003MPS 9999 BKN033 M02/M05 Q1018 R21/120055 NOSIG RMK QFE753
MVFR -2°C / -5°C 270º 6kt >10km - Overcast 3000ft 1018 No Significant change. Runway 21: Damp, 11-25% contamination with <1mm, friction coefficient 0.55. USPP 252330Z 27003MPS 9999 OVC030 M02/M05 Q1018 R21/120055 NOSIG RMK QFE753
VFR -2°C / -6°C 290º 6kt >10km - Overcast 3500ft 1018 No Significant change. Runway 03: Damp, 11-25% contamination with <1mm, friction coefficient 0.55. USPP 252300Z 29003MPS 9999 OVC035 M02/M06 Q1018 R03/120055 NOSIG RMK QFE753
MVFR -1°C / -6°C 310º variable 280º to 340º 8kt >10km Light Snow 1.00mm precipitation Vertical Visibility of 0ft. 1018 No Significant change. Runway 03: Damp, 11-25% contamination with <1mm, friction coefficient 0.55. USPP 252230Z 31004MPS 280V340 9999 -SN OVC030 M01/M06 Q1018 R03/120055 NOSIG RMK QFE753
MVFR -1°C / -4°C 300º variable 260º to 320º 10kt >10km Light Snow 1.00mm precipitation Vertical Visibility of 0ft. 1018 No Significant change. Runway 03: Damp, 11-25% contamination with <1mm, friction coefficient 0.55. USPP 252200Z 30005MPS 260V320 9999 -SN OVC018 M01/M04 Q1018 R03/120055 NOSIG RMK QFE753
MVFR -1°C / -5°C 280º 4kt >10km Light Snow 1.00mm precipitation Vertical Visibility of 0ft. 1018 No Significant change. Runway 03: Damp, 11-25% contamination with <1mm, friction coefficient 0.55. USPP 252130Z 28002MPS 9999 -SN OVC020 M01/M05 Q1018 R03/120055 NOSIG RMK QFE753
MVFR -1°C / -5°C 280º 4kt >10km Light Snow 1.00mm precipitation Vertical Visibility of 0ft. 1018 No Significant change. Runway 03: Damp, 11-25% contamination with <1mm, friction coefficient 0.55. USPP 252100Z 28002MPS 9999 -SN OVC030 M01/M05 Q1018 R03/120055 NOSIG RMK QFE753
MVFR -1°C / -5°C 300º 6kt >10km Light Snow 1.00mm precipitation Vertical Visibility of 0ft. 1018 No Significant change. Runway 03: Wet or puddles, 51-100% contamination with 1mm, friction coefficient 0.50. USPP 252030Z 30003MPS 9999 -SN OVC030 M01/M05 Q1018 R03/290150 NOSIG RMK QFE753

MVFR

-1°C / -3°C

[Więcej]
Wiatr 230º 12kt
Widzialność 8000m
Pogoda Light Snow 1.00mm precipitation
Chmury Vertical Visibility of 0ft.
Ciśn. atm. 1017
Zmień Temporary: Visibility 1100. Snow . Broken Clouds 700ft. RMK QFE752 . Runway 21: Slush, 51-100% contamination with 1mm, friction coefficient 0.47.
Surowy USPP 260800Z 23006MPS 8000 -SN BKN046 M01/M03 Q1017 R21/690147 TEMPO 1100 SN BKN007 RMK QFE752

VFR

-1°C / -3°C

[Więcej]
Wiatr 230º 12kt
Widzialność >10km
Pogoda Light Snow 1.00mm precipitation
Chmury Vertical Visibility of 0ft.
Ciśn. atm. 1018
Zmień Temporary: Visibility 1100. Snow . Broken Clouds 700ft. RMK QFE752 . Runway 21: Damp, 11-25% contamination with <1mm, friction coefficient 0.55.
Surowy USPP 260730Z 23006MPS 9999 -SN BKN044 M01/M03 Q1018 R21/120055 TEMPO 1100 SN BKN007 RMK QFE752

MVFR

-1°C / -4°C

[Więcej]
Wiatr 230º 10kt
Widzialność >10km
Pogoda Light Snow 1.00mm precipitation
Chmury Vertical Visibility of 0ft.
Ciśn. atm. 1018
Zmień Temporary: Visibility 1100. Snow . Broken Clouds 700ft. RMK QFE752 . Runway 21: Damp, 11-25% contamination with <1mm, friction coefficient 0.55.
Surowy USPP 260700Z 23005MPS 9999 -SN BKN015 M01/M04 Q1018 R21/120055 TEMPO 1100 SN BKN007 RMK QFE752

MVFR

-2°C / -4°C

[Więcej]
Wiatr 240º 12kt
Widzialność 8000m
Pogoda Light Snow 1.00mm precipitation
Chmury Vertical Visibility of 0ft.
Ciśn. atm. 1018
Zmień Temporary: Visibility 1100. Snow . Broken Clouds 700ft. RMK QFE753 . Runway 21: Damp, 11-25% contamination with <1mm, friction coefficient 0.55.
Surowy USPP 260630Z 24006MPS 8000 -SN BKN048 M02/M04 Q1018 R21/120055 TEMPO 1100 SN BKN007 RMK QFE753

MVFR

-2°C / -5°C

[Więcej]
Wiatr 240º 12kt
Widzialność >10km
Pogoda -
Chmury Broken Clouds 1500ft
Ciśn. atm. 1018
Zmień No Significant change. Runway 21: Damp, 11-25% contamination with <1mm, friction coefficient 0.55.
Surowy USPP 260600Z 24006MPS 9999 BKN015 M02/M05 Q1018 R21/120055 NOSIG RMK QFE753

VFR

-2°C / -5°C

[Więcej]
Wiatr 230º 12kt
Widzialność >10km
Pogoda -
Chmury Scattered Clouds 1400ft
Ciśn. atm. 1018
Zmień No Significant change. Runway 21: Damp, 11-25% contamination with <1mm, friction coefficient 0.55.
Surowy USPP 260530Z 23006MPS 9999 SCT014 M02/M05 Q1018 R21/120055 NOSIG RMK QFE753

VFR

-2°C / -5°C

[Więcej]
Wiatr 230º 10kt
Widzialność >10km
Pogoda -
Chmury Scattered Clouds 1500ft
Ciśn. atm. 1018
Zmień No Significant change. Runway 21: Damp, 11-25% contamination with <1mm, friction coefficient 0.55.
Surowy USPP 260500Z 23005MPS 9999 SCT015 M02/M05 Q1018 R21/120055 NOSIG RMK QFE753

VFR

-2°C / -5°C

[Więcej]
Wiatr 210º 8kt
Widzialność >10km
Pogoda -
Chmury Scattered Clouds 2300ft
Ciśn. atm. 1018
Zmień No Significant change. Runway 21: Damp, 11-25% contamination with <1mm, friction coefficient 0.55.
Surowy USPP 260430Z 21004MPS 9999 SCT023 M02/M05 Q1018 R21/120055 NOSIG RMK QFE753

MVFR

-3°C / -5°C

[Więcej]
Wiatr 210º 6kt
Widzialność >10km
Pogoda -
Chmury Broken Clouds 2300ft
Ciśn. atm. 1018
Zmień No Significant change. Runway 21: Damp, 1-10% contamination with <1mm, friction coefficient 0.55.
Surowy USPP 260400Z 21003MPS 9999 BKN023 M03/M05 Q1018 R21/110055 NOSIG RMK QFE753

MVFR

-3°C / -5°C

[Więcej]
Wiatr 220º 6kt
Widzialność >10km
Pogoda -
Chmury Broken Clouds 2400ft
Ciśn. atm. 1018
Zmień No Significant change. Runway 21: Damp, 1-10% contamination with <1mm, friction coefficient 0.55.
Surowy USPP 260330Z 22003MPS 9999 BKN024 M03/M05 Q1018 R21/110055 NOSIG RMK QFE753

MVFR

-2°C / -6°C

[Więcej]
Wiatr 260º 6kt
Widzialność >10km
Pogoda -
Chmury Broken Clouds 3000ft
Ciśn. atm. 1018
Zmień No Significant change. Runway 21: Damp, 1-10% contamination with <1mm, friction coefficient 0.55.
Surowy USPP 260300Z 26003MPS 9999 BKN030 M02/M06 Q1018 R21/110055 NOSIG RMK QFE753

MVFR

-2°C / -6°C

[Więcej]
Wiatr 260º 8kt
Widzialność >10km
Pogoda -
Chmury Broken Clouds 3000ft
Ciśn. atm. 1018
Zmień No Significant change. Runway 21: Wet or puddles, 51-100% contamination with 1mm, friction coefficient 0.50.
Surowy USPP 260230Z 26004MPS 9999 BKN030 M02/M06 Q1018 R21/290150 NOSIG RMK QFE753

MVFR

-2°C / -6°C

[Więcej]
Wiatr 260º 8kt
Widzialność >10km
Pogoda -
Chmury Broken Clouds 3000ft
Ciśn. atm. 1019
Zmień No Significant change. Runway 21: Damp, 11-25% contamination with <1mm, friction coefficient 0.55.
Surowy USPP 260200Z 26004MPS 9999 BKN030 M02/M06 Q1019 R21/120055 NOSIG RMK QFE753

MVFR

-2°C / -6°C

[Więcej]
Wiatr 260º 8kt
Widzialność >10km
Pogoda -
Chmury Broken Clouds 3000ft
Ciśn. atm. 1019
Zmień No Significant change. Runway 21: Damp, 11-25% contamination with <1mm, friction coefficient 0.55.
Surowy USPP 260130Z 26004MPS 9999 BKN030 M02/M06 Q1019 R21/120055 NOSIG RMK QFE753

VFR

-2°C / -5°C

[Więcej]
Wiatr 260º 8kt
Widzialność >10km
Pogoda -
Chmury Broken Clouds 3300ft
Ciśn. atm. 1018
Zmień No Significant change. Runway 21: Damp, 11-25% contamination with <1mm, friction coefficient 0.55.
Surowy USPP 260100Z 26004MPS 9999 BKN033 M02/M05 Q1018 R21/120055 NOSIG RMK QFE753

MVFR

-2°C / -5°C

[Więcej]
Wiatr 260º 6kt
Widzialność >10km
Pogoda -
Chmury Broken Clouds 2300ft
Ciśn. atm. 1018
Zmień No Significant change. Runway 21: Damp, 11-25% contamination with <1mm, friction coefficient 0.55.
Surowy USPP 260030Z 26003MPS 9999 BKN023 M02/M05 Q1018 R21/120055 NOSIG RMK QFE753

VFR

-2°C / -5°C

[Więcej]
Wiatr 260º 6kt
Widzialność >10km
Pogoda -
Chmury Broken Clouds 3300ft
Ciśn. atm. 1018
Zmień No Significant change. Runway 21: Damp, 11-25% contamination with <1mm, friction coefficient 0.55.
Surowy USPP 260000Z 26003MPS 9999 BKN033 M02/M05 Q1018 R21/120055 NOSIG RMK QFE753

MVFR

-2°C / -5°C

[Więcej]
Wiatr 270º 6kt
Widzialność >10km
Pogoda -
Chmury Overcast 3000ft
Ciśn. atm. 1018
Zmień No Significant change. Runway 21: Damp, 11-25% contamination with <1mm, friction coefficient 0.55.
Surowy USPP 252330Z 27003MPS 9999 OVC030 M02/M05 Q1018 R21/120055 NOSIG RMK QFE753

VFR

-2°C / -6°C

[Więcej]
Wiatr 290º 6kt
Widzialność >10km
Pogoda -
Chmury Overcast 3500ft
Ciśn. atm. 1018
Zmień No Significant change. Runway 03: Damp, 11-25% contamination with <1mm, friction coefficient 0.55.
Surowy USPP 252300Z 29003MPS 9999 OVC035 M02/M06 Q1018 R03/120055 NOSIG RMK QFE753

MVFR

-1°C / -6°C

[Więcej]
Wiatr 310º variable 280º to 340º 8kt
Widzialność >10km
Pogoda Light Snow 1.00mm precipitation
Chmury Vertical Visibility of 0ft.
Ciśn. atm. 1018
Zmień No Significant change. Runway 03: Damp, 11-25% contamination with <1mm, friction coefficient 0.55.
Surowy USPP 252230Z 31004MPS 280V340 9999 -SN OVC030 M01/M06 Q1018 R03/120055 NOSIG RMK QFE753

MVFR

-1°C / -4°C

[Więcej]
Wiatr 300º variable 260º to 320º 10kt
Widzialność >10km
Pogoda Light Snow 1.00mm precipitation
Chmury Vertical Visibility of 0ft.
Ciśn. atm. 1018
Zmień No Significant change. Runway 03: Damp, 11-25% contamination with <1mm, friction coefficient 0.55.
Surowy USPP 252200Z 30005MPS 260V320 9999 -SN OVC018 M01/M04 Q1018 R03/120055 NOSIG RMK QFE753

MVFR

-1°C / -5°C

[Więcej]
Wiatr 280º 4kt
Widzialność >10km
Pogoda Light Snow 1.00mm precipitation
Chmury Vertical Visibility of 0ft.
Ciśn. atm. 1018
Zmień No Significant change. Runway 03: Damp, 11-25% contamination with <1mm, friction coefficient 0.55.
Surowy USPP 252130Z 28002MPS 9999 -SN OVC020 M01/M05 Q1018 R03/120055 NOSIG RMK QFE753

MVFR

-1°C / -5°C

[Więcej]
Wiatr 280º 4kt
Widzialność >10km
Pogoda Light Snow 1.00mm precipitation
Chmury Vertical Visibility of 0ft.
Ciśn. atm. 1018
Zmień No Significant change. Runway 03: Damp, 11-25% contamination with <1mm, friction coefficient 0.55.
Surowy USPP 252100Z 28002MPS 9999 -SN OVC030 M01/M05 Q1018 R03/120055 NOSIG RMK QFE753

MVFR

-1°C / -5°C

[Więcej]
Wiatr 300º 6kt
Widzialność >10km
Pogoda Light Snow 1.00mm precipitation
Chmury Vertical Visibility of 0ft.
Ciśn. atm. 1018
Zmień No Significant change. Runway 03: Wet or puddles, 51-100% contamination with 1mm, friction coefficient 0.50.
Surowy USPP 252030Z 30003MPS 9999 -SN OVC030 M01/M05 Q1018 R03/290150 NOSIG RMK QFE753

TAF dla 57.92°N 56.02°E (USPP)

From till


From till Wind 220º 6kt. Gust 25kt. Visibility 6000m. Light Snow . Broken Clouds 1600ft.
Temporarly from till Visibility 2200m. Light Showers Snow . Broken Clouds 1100ft.
Becoming from till Wind 220º 6kt. Gust 25kt. Visibility 6000m. Light Rain Light Snow . Broken Clouds 1600ft.

Surowy: TAF USPP 260457Z 2606/2706 22003G13MPS 6000 -SN BKN016 TEMPO 2606/2618 2200 -SHSN BKN011CB BECMG 2618/2620 -RASN

Aktualne zdjęcia satelitarne i zdjęcia opadów deszczu dla 57.92°N 56.02°E

Wskaźnik lokalizacji znajduje się na 57.92°N 56.02°E. [Więcej]

Obraz satelitarny w czasie rzeczywistym łączy światło widzialne w ciągu dnia z promieniowaniem podczerwonym w nocy. W nocy obraz nie jest ciemny, ponieważ promieniowanie podczerwone może wykrywać różnice temperatur. Niestety niskie chmury i mgłę trudno odróżnić od temperatury gruntu, przez co mogą być prawie niewidoczne w nocy. Zdjęcia satelitarne Meteosat dla Europy są aktualizowane w czasie rzeczywistym co 5 minut. Obrazy GOES-16/GOES-17 (Ameryka Północna i Południowa) oraz Himawari (Azja) są aktualizowane co 10 minut.

Prawa autorskie 2021 EUMETSAT / meteoblue. / Prawa autorskie 2021 meteoblue

Radar i prognoza opadów na teraz dla 57.92°N 56.02°E

Mżawka
Lekki
Umiarkowane
Ulewne
Bardzo ciężkie
Zdrowaśka

Wskaźnik lokalizacji jest umieszczony na 57.92°N 56.02°E. Animacja przedstawia radar opadów dla ostatniej godziny, jak również 1h prognozę pogody. Mżawka i lekkie opady mogą być niewidoczne na radarze. Intensywność opadów jest oznaczona kolorami od jasnoniebieskiego do ciemnofioletowego.